EA1ZE Weather Reports


Display with metric or nautical units.
time (UTC)temp
F
wind
direction
speed
MPH
gust
MPH
rain 1hr
in
rain 24hr
in
rain mn
in
humidity
%
barometer
mb
20260504011556 52 188 0.0 4.0 0.00 0.00 0.00 83 1011.4
20260504010058 52 188 0.0 3.0 0.00 0.00 0.00 82 1011.5
20260504004553 53 188 2.0 5.0 0.00 0.00 0.00 82 1011.8
20260504003052 53 188 3.0 6.0 0.00 0.00 0.00 80 1011.8
20260504001607 54 207 4.0 6.0 0.00 0.00 0.00 80 1011.8
20260504000048 54 271 2.0 6.0 0.00 0.00 0.00 79 1011.6
20260503234545 54 207 4.0 9.0 0.00 0.00 0.00 78 1011.7
20260503233042 54 255 2.0 7.0 0.00 0.00 0.00 77 1011.7
20260503231542 55 262 2.0 8.0 0.00 0.00 0.00 76 1011.7
20260503230045 55 273 1.0 6.0 0.00 0.00 0.00 75 1011.7
20260503224539 55 227 2.0 7.0 0.00 0.00 0.00 74 1011.9
20260503223041 55 234 2.0 7.0 0.00 0.00 0.00 74 1011.9
20260503221541 55 219 3.0 7.0 0.00 0.00 0.00 74 1012.0
20260503220036 55 186 4.0 8.0 0.00 0.00 0.00 73 1012.1
20260503214532 56 215 3.0 6.0 0.00 0.00 0.00 72 1011.9
20260503213038 56 228 0.0 3.0 0.00 0.00 0.00 72 1011.6
20260503211536 56 276 1.0 3.0 0.00 0.00 0.00 73 1011.6
20260503210031 56 283 0.0 3.0 0.00 0.00 0.00 74 1011.4
20260503204531 56 355 2.0 8.0 0.00 0.00 0.00 75 1011.4
20260503203034 56 235 2.0 5.0 0.00 0.00 0.00 75 1011.4
20260503201531 57 273 3.0 7.0 0.00 0.00 0.00 73 1011.2
20260503200033 57 271 3.0 8.0 0.00 0.00 0.00 70 1011.0
20260503194531 58 333 5.0 10.0 0.00 0.00 0.00 68 1010.8
20260503193029 60 297 4.0 12.0 0.00 0.00 0.00 63 1010.4
20260503191528 62 226 1.0 6.0 0.00 0.00 0.00 55 1010.1
20260503190035 63 219 3.0 9.0 0.00 0.01 0.00 53 1009.7
20260503184528 63 269 3.0 12.0 0.00 0.01 0.00 53 1009.4
20260503183035 64 247 3.0 11.0 0.00 0.01 0.00 50 1009.2
20260503181543 65 232 5.0 12.0 0.00 0.01 0.00 49 1009.2
20260503180025 66 234 4.0 14.0 0.00 0.02 0.00 50 1009.1
20260503174523 65 227 7.0 16.0 0.00 0.02 0.00 50 1009.1
20260503173041 65 220 2.0 9.0 0.00 0.02 0.00 58 1009.2
20260503171522 64 190 4.0 10.0 0.00 0.02 0.00 56 1009.2
20260503130153 61 277 5.0 9.0 0.00 0.10 0.00 68 1011.1
20260503120124 61 158 1.0 6.0 0.00 0.11 0.00 70 1011.7
20260503110124 61 172 7.0 12.0 0.00 0.19 0.00 70 1012.4
20260503100106 59 179 4.0 9.0 0.00 0.24 0.00 75 1012.7
20260503081541 53 163 6.0 9.0 0.00 0.24 0.00 89 1013.1
20260503080140 52 179 1.0 5.0 0.00 0.24 0.00 88 1013.1
20260503071538 53 194 3.0 7.0 0.00 0.24 0.00 86 1012.8
20260503054533 52 180 0.0 0.0 0.00 0.24 0.00 87 1012.5
20260503053039 52 180 0.0 0.0 0.00 0.24 0.00 87 1012.5
20260503051531 52 180 0.0 0.0 0.00 0.24 0.00 86 1012.7
20260503050033 52 180 0.0 0.0 0.00 0.24 0.00 86 1012.7
20260503044601 52 180 0.0 0.0 0.00 0.24 0.00 85 1012.7
20260503043028 52 180 0.0 0.0 0.00 0.24 0.00 85 1012.8
20260503041529 52 180 0.0 0.0 0.00 0.24 0.00 85 1012.7
20260503040028 52 180 0.0 0.0 0.00 0.24 0.00 85 1012.9
20260503034529 52 180 0.0 0.0 0.00 0.24 0.00 86 1012.9
20260503033025 52 180 0.0 0.0 0.00 0.24 0.00 86 1013.0
20260503031523 52 180 0.0 0.0 0.00 0.24 0.00 85 1013.0
20260503030022 52 180 0.0 1.0 0.00 0.24 0.00 86 1013.1
20260503024521 53 180 0.0 4.0 0.00 0.24 0.00 86 1013.3
20260503023020 53 180 2.0 7.0 0.00 0.24 0.00 86 1013.4
20260503021520 53 207 2.0 4.0 0.00 0.24 0.00 84 1013.3
20260503020030 53 207 3.0 6.0 0.00 0.24 0.00 82 1013.3
20260503014515 54 207 3.0 5.0 0.00 0.24 0.00 80 1013.4
20260503013014 53 225 3.0 5.0 0.00 0.24 0.00 79 1013.4